{"data":{"norad_id":57843,"intl_designator":"2023-141D","name":"STARLINK-30423","alt_names":[],"object_type":"PAYLOAD","status":"ACTIVE","operator":null,"country":"US","launch_date":"2023-09-12","launch_site_code":"AFWTR","launch_vehicle":null,"mission":null,"orbit_class":"UNKNOWN","rcs_meters":null,"size_class":null,"mass_kg":null,"dimensions":null,"purposes":["comms"],"wikipedia_slug":null,"has_3d_model":false,"image_url":null,"decayed_at":null,"tle_current":{"epoch":"2026-05-24T19:37:28.907616Z","epoch_age_seconds":91617,"freshness":"FRESH","line1":"1 57843U 23141D   26144.81769569  .00000332  00000+0  22448-4 0  9997","line2":"2 57843  53.1613 290.3017 0001158  84.2575 275.8558 15.31700391151980","mean_motion":15.31700391,"eccentricity":0.0001158,"inclination_deg":53.1613,"raan_deg":290.3017,"arg_perigee_deg":84.2575,"mean_anomaly_deg":275.8558,"bstar":2.2448e-5,"rev_number":15198,"period_min":94.013163962168,"perigee_km":469.94572985416,"apogee_km":471.53192949632,"semimajor_km":6848.8758296752,"source":"CELESTRAK","updated_at":"2026-05-25T13:38:18.413953Z"}}}